Location: *
(51.1248°S, 108.4023°W)
Time: 04:38:10
(UTC+00:00)

Meteor 2-6 Rocket - Pass Details

Date: 15 June 2021
Orbit: 805 x 915 km, 81.3° (Epoch: 31 July)

Event Time Altitude Azimuth Distance (km) Brightness Sun altitude
Rises 12:16:50 0° 348° (NNW) 3,385 7.3 -26.8°
Reaches altitude 10° 12:19:15 10° 347° (NNW) 2,444 6.5 -26.4°
Maximum altitude 12:24:47 84° 259° (W) 838 4.0 -25.6°
Drops below altitude 10° 12:30:18 10° 168° (SSE) 2,431 6.6 -24.7°
Sets 12:32:42 0° 167° (SSE) 3,366 7.4 -24.3°
